Regional Weather Roundup
Issued by NWS Lake Charles, LA

Home | Current Version | Previous Version | Text Only | Print | Product List | Glossary On
Versions: 1 2 3 4 5 6 7 8 9 10 11 12 13 14 15 16 17 18 19 20 21 22 23 24 25 26 27 28
000
ASUS44 KLCH 211710
RWRLCH
REGIONAL WEATHER ROUNDUP
NATIONAL WEATHER SERVICE LAKE CHARLES LA
1200 PM CDT MON MAY 21 2018

Note: "fair" indicates few or no clouds below 12,000 feet with no
significant weather and/or obstructions to visibility.


ACROSS SOUTHEAST TEXAS

CITY           SKY/WX    TMP DP  RH WIND       PRES   REMARKS
BEAUMONT       FAIR      84  68  58 E3        30.01F
BEAUMONT CITY  CLOUDY    77  72  84 SE7       30.02F
ORANGE         FAIR      87  71  58 S7        30.02F
JASPER         FAIR      86  72  61 W5        30.04F
$$

ACROSS CENTRAL LOUISIANA

CITY           SKY/WX    TMP DP  RH WIND       PRES   REMARKS
LEESVILLE      NOT AVBL
FULLERTON      CLOUDY    88  67  49 VRB3      30.00F
ALEXANDRIA INT PTSUNNY   85  67  54 NE5       30.01F
ESLER FIELD    FAIR      88  68  51 SE6       30.03S
DERIDDER       PTSUNNY   84  66  54 SW3       30.05S
OAKDALE        FAIR      86  67  52 CALM      30.03S
OPELOUSAS      FAIR      87  63  45 S3        30.02F
$$

ACROSS SOUTHWEST AND SOUTH CENTRAL LOUISIANA

CITY           SKY/WX    TMP DP  RH WIND       PRES   REMARKS
SULPHUR        FAIR      89  69  51 S3        30.02F
LAKE CHARLES   FAIR      88  70  55 VRB3      30.01F
CHENNAULT INT  SHOWER    86  72  62 E6        30.02S
CAMERON PHI    SUNNY     82  73  74 S7        30.02F
DEQUINCY       NOT AVBL
JENNINGS       PTSUNNY   86  69  58 CALM      30.02S
LAFAYETTE      PTSUNNY   87  68  52 VRB6      30.02F
NEW IBERIA     PTSUNNY   87  63  44 N3        30.03S
ABBEVILLE      FAIR      87  69  56 E6        30.02F
PATTERSON      PTSUNNY   86  71  60 E7        30.03S
SALT POINT       N/A    N/A N/A N/A VRB3      30.01S
$$

SELECTED SITES ACROSS THE REGION

CITY           SKY/WX    TMP DP  RH WIND       PRES   REMARKS
HOUSTON BUSH   PTSUNNY   78  69  73 S10       30.01S THUNDER
HOUSTON HOBBY  CLOUDY    81  75  82 CALM      30.00F
GALVESTON      FAIR      83  75  77 SE8       30.01F
COLLEGE STAT   HVY RAIN  78  74  87 CALM      30.02F
CONROE         CLOUDY    84  72  67 S7        30.02F
HUNTSVILLE     CLOUDY    83  70  64 SW5       30.03F
LUFKIN         MOSUNNY   83  71  67 CALM      30.02F
SHREVEPORT     CLOUDY    82  68  62 CALM      30.04S
MONROE         FAIR      86  69  56 N7        30.03S
NATCHEZ MS     FAIR      87  67  51 E5        30.04F
BATON ROUGE    FAIR      88  66  48 N6        30.02F
N.O. INTL ARPT PTSUNNY   86  73  65 NE9       30.03S
SLIDELL        FAIR      83  71  67 E12       30.03F THUNDER
$$

MARINE REPORTS

STATION/POSITION TIME  SKY/WX   TEMP    WIND        PRES    VSBY
                                AIR SEA DIR/SP/G
                 (UTC)          (F)     (DEG/KT/KT) (MB)    (MI)
BUOY 30 S HIGH I NOT AVBL
SEA RIM ST PARK  1700            83     160/  6/  7 1016.8F
PORT ARTHUR      1648            84 83  150/  4/  7 1016.5F
SABINE PASS N    1636            82 86  140/  7/  8 1018.1S
TEXAS POINT      NOT AVBL
CALCASIEU PASS   1648            81 83  180/  6/  9 1015.8F
LK CHARLES BEACH 1648            85 82              1016.1F
MARSH ISLAND     1600            80                   N/A
FRESH WATER LOCK 1648            83 85   90/  6/ 12 1016.7S
AMERADA PASS     1648            82 79   90/  5/  9 1016.7F
$$




USA.gov is the U.S. government's official web portal to all federal, state and local government web resources and services.